Regional Weather Roundup
Issued by NWS Boston, MA

Current Version | Previous Version | Graphics & Text | Print | Product List | Glossary On
Versions: 1 2 3 4 5 6 7 8 9 10 11 12 13 14 15 16 17 18 19 20 21 22 23 24 25 26 27
000 ASUS41 KBOX 251210 RWRBOX REGIONAL WEATHER ROUNDUP NATIONAL WEATHER SERVICE TAUNTON MA 800 AM EDT MON SEP 25 2017 NOTE: "FAIR" INDICATES FEW OR NO CLOUDS BELOW 12,000 FEET WITH NO SIGNIFICANT WEATHER AND/OR OBSTRUCTIONS TO VISIBILITY. MAZALL-251300- EASTERN MASSACHUSETTS CITY SKY/WX TMP DP RH WIND PRES REMARKS BOSTON MOSUNNY 67 65 93 E3 30.08R 6HR MIN TEMP: 65; 6HR MAX TEMP: 68; BEVERLY SUNNY 68 65 90 CALM 30.07R LAWRENCE SUNNY 72 67 84 NE3 30.09S BEDFORD SUNNY 68 64 87 CALM 30.07R BLUE HILL N/A 73 66 78 E6 30.08R NORWOOD SUNNY 67 64 90 CALM 30.07R MARSHFIELD SUNNY 66 64 94 CALM 30.07S PLYMOUTH SUNNY 66 62 87 CALM 30.08R TAUNTON SUNNY 64 61 90 CALM 30.07S NEW BEDFORD SUNNY 66 63 90 CALM 30.07R $$ MAZALL-251300- CAPE COD AND THE ISLANDS CITY SKY/WX TMP DP RH WIND PRES REMARKS FALMOUTH CLOUDY 63 63 100 CALM 30.09S FOG HYANNIS FOG 64 64 100 CALM 30.07R VSB<1/4 CHATHAM FOG 63 63 100 E3 30.09R VSB 1/4 PROVINCETOWN PTSUNNY 66 64 94 S3 30.09R FOG NANTUCKET FOG 62 62 100 NE5 30.07R VSB 1/4 MARTHAS VNYRD FOG 64 63 96 NE3 30.07R VSB 1/4 $$ MAZALL-251300- CENTRAL AND WESTERN MASSACHUSETTS CITY SKY/WX TMP DP RH WIND PRES REMARKS WORCESTER SUNNY 74 65 73 NE8 30.11R 6HR MIN TEMP: 72; 6HR MAX TEMP: 77; FITCHBURG SUNNY 70 66 87 CALM 30.09R ORANGE SUNNY 65 64 97 CALM 30.10R SPRINGFIELD SUNNY 65 64 98 CALM 30.07R WESTFIELD SUNNY 69 67 93 N6 30.08R NORTH ADAMS FOG 61 60 97 CALM 30.13R VSB 1/4 PITTSFIELD MOSUNNY 64 63 96 CALM 30.12R $$ RIZALL-251300- RHODE ISLAND CITY SKY/WX TMP DP RH WIND PRES REMARKS PROVIDENCE SUNNY 68 65 90 N3 30.08R 6HR MIN TEMP: 63; 6HR MAX TEMP: 68; NEWPORT SUNNY 68 68 100 CALM 30.07R BLOCK ISLAND MOSUNNY 66 64 94 SE5 30.08R SMITHFIELD SUNNY 68 66 93 NE3 30.09R WESTERLY SUNNY 65 61 87 CALM 30.07R $$ CTZALL-251300- CONNECTICUT CITY SKY/WX TMP DP RH WIND PRES REMARKS BRADLEY INTL SUNNY 70 67 90 N6 30.07R 6HR MIN TEMP: 65; 6HR MAX TEMP: 70; HARTFORD SUNNY 68 67 96 CALM 30.07R BRIDGEPORT SUNNY 71 67 87 E3 30.06R DANBURY SUNNY 67 64 90 CALM 30.09R GROTON SUNNY 67 62 84 NE3 30.06R NEW HAVEN SUNNY 70 67 90 CALM 30.06R CHESTER FAIR 70 66 88 CALM 30.07R MERIDEN SUNNY 70 66 87 CALM 30.07R WILLIMANTIC SUNNY 65 64 97 CALM 30.08R $$ MEZ002-015-021-024-NHZ003-005-008-011-012-014-VTZ005-008-251300- NORTHERN NEW ENGLAND CITY SKY/WX TMP DP RH WIND PRES REMARKS PORTLAND ME MOSUNNY 68 65 90 CALM 30.08R 6HR MIN TEMP: 62; 6HR MAX TEMP: 68; 6HR PCP: TRACE; BANGOR ME MOSUNNY 69 65 86 N3 30.10R FOG CONCORD NH SUNNY 66 65 96 E3 30.10R MANCHESTER NH MOSUNNY 72 68 87 N5 30.07R NASHUA NH SUNNY 69 67 93 NW3 30.09R PORTSMOUTH NH MOSUNNY 70 67 92 CALM 30.07R JAFFREY NH SUNNY 64 63 96 CALM 30.13R KEENE NH FOG 64 63 94 CALM 30.12S VSB 3/4 BURLINGTON VT MOSUNNY 69 66 90 CALM 30.10S MT. WASHINGTON FOG 55 55 100 N12 N/A VSB 1/8 $$ NYZ052-076-251300- EASTERN NEW YORK CITY SKY/WX TMP DP RH WIND PRES REMARKS ALBANY SUNNY 68 65 90 CALM 30.10R 6HR MIN TEMP: 64; 6HR MAX TEMP: 69; NEW YORK CITY MOSUNNY 73 67 81 NE3 30.06R 6HR MIN TEMP: 72; 6HR MAX TEMP: 74; $$ ANZALL-251300- MARINE OBSERVATIONS STATION/POSITION TIME TEMP WIND PRES VSBY WAVE AIR SEA DIR/SP/G HT/PER (UTC) (F) (DEG/KT/KT) (MB) (MI) (FT/S) BOSTON BUOY 1050 64 63 180/ 2/ 2 1017.9 2/10 BUZZARDS BAY 1100 65 130/ 6/ 7 1018.3R NANTUCKET SOUND 1150 61 62 40/ 4/ 6 1018.2R 1/13 MASS BAY-STELLWA 1104 63 61 210/ 4/ 4 1017.5R 3/11 ISLE OF SHOALS 1100 66 CALM / 1 1018.0R S OF BLOCK IS NOT AVBL $$ ......................KEY......................... SKY/WX - SKY CONDITION/PRESENT WEATHER TMP - TEMPERATURE IN FAHRENHEIT DWPT - DEWPOINT IN FAHRENHEIT RH - RELATIVE HUMIDITY IN PERCENT WIND - DIRECTION AND SPEED IN MPH PRES - MEAN SEA LEVEL PRESSURE IN INCHES OF HG WCI - WIND CHILL INDEX VSB - VISIBILITY IN MILES HX - HEAT INDEX TC - TEMPERATURE IN CELSIUS VRB - VARIABLE WIND DIRECTION N/A - NOT AVAILABLE

USA.gov is the U.S. government's official web portal to all federal, state and local government web resources and services.